Clinton, OK

3:29 AM CST on December 14, 2017 (GMT -0600)
Clinton Municipal

Weather History for KCLK - October, 2013

Change the Weather History Date:

Tuesday, October 8, 2013

  Actual Average (KCSM) Record (KCSM)
Temperature  
Mean Temperature 63 °F -  
Max Temperature 80 °F 73 °F 91 °F (2014)
Min Temperature 46 °F 51 °F 34 °F (2012)
Degree Days  
Heating Degree Days 2    
Growing Degree Days 13 (Base 50)    
Moisture  
Dew Point 37 °F    
Average Humidity 42    
Maximum Humidity 76    
Minimum Humidity 18    
Precipitation  
Precipitation 0.00 in - - ()
Sea Level Pressure  
Sea Level Pressure 30.04 in    
Wind  
Wind Speed 10 mph (SSE)    
Max Wind Speed 20 mph    
Max Gust Speed 25 mph    
Visibility 10 miles    
Events      
Averages and records for this station are not official NWS values.
T = Trace of Precipitation, MM = Missing Value Source: NWS Daily Summary

Daily Weather History Graph

Daily Weather History Graph

Search for Another Location

Airport or City:

Trip Planner

Search our weather history database for the weather conditions in past years. The results will help you decide how hot, cold, wet, or windy it might be!

Date:

Astronomy

Oct. 08, 2013 Rise Set
Actual Time 7:36 AM CDT 7:09 PM CDT
Civil Twilight 7:10 AM CDT 7:34 PM CDT
Nautical Twilight 6:41 AM CDT 8:04 PM CDT
Astronomical Twilight 6:11 AM CDT 8:33 PM CDT
Moon 11:24 AM CDT (10/8) 9:55 PM CDT (10/8)
Length of Visible Light 12h 23m
Length of Day
11h 32m
Waxing Crescent, 16% of the Moon is Illuminated
Oct 8
Waxing Crescent
Oct 11
First Quarter
Oct 18
Full
Oct 26
Last Quarter
Nov 3
New

Hourly Weather History & Observations

Time (CDT) Temp. Windchill Dew Point Humidity Pressure Visibility Wind Dir Wind Speed Gust Speed Precip Events Conditions
12:15 AM 57.2 °F - 35.6 °F 44% 30.10 in 10.0 mi SSE 5.8 mph - N/A   Scattered Clouds
12:35 AM 57.2 °F - 35.6 °F 44% 30.10 in 10.0 mi SSE 6.9 mph - N/A   Mostly Cloudy
12:55 AM 55.4 °F - 37.4 °F 51% 30.10 in 10.0 mi SSE 6.9 mph - N/A   Scattered Clouds
1:15 AM 55.4 °F - 37.4 °F 51% 30.10 in 10.0 mi SSE 9.2 mph - N/A   Scattered Clouds
1:35 AM 55.4 °F - 37.4 °F 51% 30.10 in 10.0 mi SSE 8.1 mph - N/A   Scattered Clouds
1:55 AM 53.6 °F - 39.2 °F 58% 30.10 in 10.0 mi SSE 6.9 mph - N/A   Scattered Clouds
2:15 AM 51.8 °F - 39.2 °F 62% 30.10 in 10.0 mi SSE 6.9 mph - N/A   Scattered Clouds
2:35 AM 51.8 °F - 39.2 °F 62% 30.10 in 10.0 mi SSE 6.9 mph - N/A   Scattered Clouds
2:55 AM 51.8 °F - 39.2 °F 62% 30.10 in 10.0 mi SSE 6.9 mph - N/A   Scattered Clouds
3:15 AM 53.6 °F - 37.4 °F 54% 30.09 in 10.0 mi SSE 9.2 mph - N/A   Scattered Clouds
3:35 AM 51.8 °F - 37.4 °F 58% 30.09 in 10.0 mi SSE 8.1 mph - N/A   Scattered Clouds
3:55 AM 51.8 °F - 37.4 °F 58% 30.09 in 10.0 mi SSE 8.1 mph - N/A   Mostly Cloudy
4:15 AM 51.8 °F - 37.4 °F 58% 30.08 in 10.0 mi SSE 8.1 mph - N/A   Mostly Cloudy
4:35 AM 50.0 °F - 39.2 °F 66% 30.08 in 10.0 mi SSE 6.9 mph - N/A   Mostly Cloudy
4:55 AM 50.0 °F - 39.2 °F 66% 30.08 in 10.0 mi SSE 8.1 mph - N/A   Scattered Clouds
5:15 AM 50.0 °F - 39.2 °F 66% 30.08 in 10.0 mi SSE 8.1 mph - N/A   Scattered Clouds
5:35 AM 50.0 °F - 39.2 °F 66% 30.08 in 10.0 mi SSE 5.8 mph - N/A   Scattered Clouds
5:55 AM 50.0 °F - 37.4 °F 62% 30.08 in 10.0 mi SE 8.1 mph - N/A   Scattered Clouds
6:15 AM 50.0 °F - 37.4 °F 62% 30.08 in 10.0 mi SE 8.1 mph - N/A   Mostly Cloudy
6:35 AM 50.0 °F - 37.4 °F 62% 30.08 in 10.0 mi SE 6.9 mph - N/A   Overcast
6:55 AM 50.0 °F - 37.4 °F 62% 30.08 in 10.0 mi SE 8.1 mph - N/A   Mostly Cloudy
7:15 AM 50.0 °F - 37.4 °F 62% 30.09 in 10.0 mi SSE 5.8 mph - N/A   Mostly Cloudy
7:35 AM 46.4 °F 43.5 °F 37.4 °F 71% 30.09 in 10.0 mi South 5.8 mph - N/A   Mostly Cloudy
7:55 AM 46.4 °F - 39.2 °F 76% 30.10 in 10.0 mi Calm Calm - N/A   Scattered Clouds
8:15 AM 46.4 °F 45.2 °F 37.4 °F 71% 30.10 in 10.0 mi South 3.5 mph - N/A   Clear
8:35 AM 46.4 °F 44.3 °F 39.2 °F 76% 30.10 in 10.0 mi SSE 4.6 mph - N/A   Clear
8:55 AM 50.0 °F - 41.0 °F 71% 30.10 in 10.0 mi South 6.9 mph - N/A   Clear
9:15 AM 51.8 °F - 41.0 °F 67% 30.10 in 10.0 mi SSE 8.1 mph - N/A   Clear
9:35 AM 55.4 °F - 41.0 °F 58% 30.10 in 10.0 mi SSE 8.1 mph - N/A   Clear
9:55 AM 57.2 °F - 41.0 °F 55% 30.11 in 10.0 mi SSE 9.2 mph - N/A   Clear
10:15 AM 59.0 °F - 39.2 °F 48% 30.11 in 10.0 mi South 10.4 mph - N/A   Clear
10:35 AM 60.8 °F - 39.2 °F 45% 30.11 in 10.0 mi South 11.5 mph - N/A   Clear
10:55 AM 62.6 °F - 37.4 °F 39% 30.10 in 10.0 mi South 12.7 mph 20.7 mph N/A   Clear
11:15 AM 64.4 °F - 39.2 °F 40% 30.09 in 10.0 mi South 15.0 mph 20.7 mph N/A   Clear
11:35 AM 68.0 °F - 37.4 °F 33% 30.09 in 10.0 mi SSE 16.1 mph - N/A   Clear
11:55 AM 68.0 °F - 35.6 °F 30% 30.07 in 10.0 mi SSE 18.4 mph - N/A   Clear
12:15 PM 71.6 °F - 35.6 °F 27% 30.07 in 10.0 mi South 16.1 mph 21.9 mph N/A   Clear
12:35 PM 71.6 °F - 33.8 °F 25% 30.06 in 10.0 mi South 18.4 mph 24.2 mph N/A   Clear
12:55 PM 73.4 °F - 33.8 °F 23% 30.05 in 10.0 mi SSE 18.4 mph 21.9 mph N/A   Clear
1:15 PM 73.4 °F - 33.8 °F 23% 30.05 in 10.0 mi South 19.6 mph 23.0 mph N/A   Clear
1:35 PM 75.2 °F - 33.8 °F 22% 30.04 in 10.0 mi South 19.6 mph - N/A   Clear
1:55 PM 77.0 °F - 35.6 °F 22% 30.02 in 10.0 mi South 18.4 mph 24.2 mph N/A   Clear
2:15 PM 77.0 °F - 33.8 °F 21% 30.01 in 10.0 mi South 16.1 mph - N/A   Clear
2:35 PM 77.0 °F - 35.6 °F 22% 30.00 in 10.0 mi South 18.4 mph - N/A   Clear
2:55 PM 78.8 °F - 35.6 °F 21% 30.00 in 10.0 mi South 19.6 mph - N/A   Clear
3:15 PM 78.8 °F - 35.6 °F 21% 29.99 in 10.0 mi SSE 17.3 mph - N/A   Clear
3:35 PM 78.8 °F - 35.6 °F 21% 29.99 in 10.0 mi South 16.1 mph 24.2 mph N/A   Clear
3:55 PM 78.8 °F - 33.8 °F 20% 29.98 in 10.0 mi South 18.4 mph 24.2 mph N/A   Clear
4:15 PM 78.8 °F - 35.6 °F 21% 29.98 in 10.0 mi SSE 16.1 mph 21.9 mph N/A   Clear
4:35 PM 77.0 °F - 33.8 °F 21% 29.97 in 10.0 mi South 17.3 mph - N/A   Clear
4:55 PM 78.8 °F - 33.8 °F 20% 29.97 in 10.0 mi SSE 16.1 mph - N/A   Clear
5:15 PM 80.6 °F - 33.8 °F 18% 29.97 in 10.0 mi SSE 16.1 mph 21.9 mph N/A   Clear
5:35 PM 78.8 °F - 33.8 °F 20% 29.96 in 10.0 mi SSE 16.1 mph - N/A   Clear
5:55 PM 78.8 °F - 33.8 °F 20% 29.96 in 10.0 mi SSE 13.8 mph 19.6 mph N/A   Clear
6:15 PM 77.0 °F - 33.8 °F 21% 29.95 in 10.0 mi SSE 13.8 mph 21.9 mph N/A   Clear
6:35 PM 77.0 °F - 33.8 °F 21% 29.95 in 10.0 mi SSE 13.8 mph - N/A   Clear
6:55 PM 73.4 °F - 33.8 °F 23% 29.95 in 10.0 mi SSE 11.5 mph - N/A   Clear
7:15 PM 71.6 °F - 35.6 °F 27% 29.95 in 10.0 mi SE 9.2 mph - N/A   Clear
7:35 PM 71.6 °F - 35.6 °F 27% 29.95 in 10.0 mi SE 10.4 mph - N/A   Clear
7:55 PM 69.8 °F - 35.6 °F 28% 29.95 in 10.0 mi SE 11.5 mph - N/A   Clear
8:15 PM 69.8 °F - 35.6 °F 28% 29.96 in 10.0 mi SE 13.8 mph - N/A   Clear
8:35 PM 69.8 °F - 35.6 °F 28% 29.95 in 10.0 mi SE 15.0 mph 19.6 mph N/A   Clear
8:55 PM 68.0 °F - 35.6 °F 30% 29.95 in 10.0 mi SE 17.3 mph - N/A   Clear
9:15 PM 68.0 °F - 37.4 °F 33% 29.96 in 10.0 mi SE 16.1 mph 20.7 mph N/A   Clear
9:35 PM 66.2 °F - 37.4 °F 35% 29.96 in 10.0 mi SE 13.8 mph - N/A   Clear
9:55 PM 64.4 °F - 37.4 °F 37% 29.96 in 10.0 mi SE 16.1 mph 21.9 mph N/A   Scattered Clouds
10:15 PM 64.4 °F - 37.4 °F 37% 29.96 in 10.0 mi SE 15.0 mph - N/A   Clear
10:35 PM 64.4 °F - 37.4 °F 37% 29.97 in 10.0 mi SE 16.1 mph 23.0 mph N/A   Scattered Clouds
10:55 PM 64.4 °F - 37.4 °F 37% 29.97 in 10.0 mi SSE 17.3 mph 25.3 mph N/A   Scattered Clouds
11:15 PM 62.6 °F - 37.4 °F 39% 29.97 in 10.0 mi SSE 17.3 mph - N/A   Scattered Clouds
11:35 PM 62.6 °F - 39.2 °F 42% 29.97 in 10.0 mi SSE 16.1 mph - N/A   Scattered Clouds
11:55 PM 62.6 °F - 39.2 °F 42% 29.97 in 10.0 mi SSE 13.8 mph - N/A   Scattered Clouds